Phoenix Deer Valley, AZ

11:46 PM MST on May 28, 2017 (GMT -0700)
Phoenix-Deer Valley Municipal

Weather History for KDVT - October, 2012

Change the Weather History Date:

Tuesday, October 23, 2012

  Actual Average Record
Temperature  
Mean Temperature 71 °F -  
Max Temperature 80 °F 78 °F 95 °F (2003)
Min Temperature 62 °F 58 °F 46 °F (1996)
Cooling Degree Days 6    
Growing Degree Days 21 (Base 50)    
Moisture  
Dew Point 49 °F    
Average Humidity 45    
Maximum Humidity 58    
Minimum Humidity 31    
Precipitation  
Precipitation 0.00 in - - ()
Sea Level Pressure  
Sea Level Pressure 29.80 in    
Wind  
Wind Speed 3 mph (ESE)    
Max Wind Speed 6 mph    
Max Gust Speed -    
Visibility 10 miles    
Events      
Averages and records for this station are not official NWS values.
T = Trace of Precipitation, MM = Missing Value Source: NWS Daily Summary

Daily Weather History Graph

Daily Weather History Graph

Search for Another Location

Airport or City:

Trip Planner

Search our weather history database for the weather conditions in past years. The results will help you decide how hot, cold, wet, or windy it might be!

Date:

Astronomy

Oct. 23, 2012 Rise Set
Actual Time 6:40 AM MST 5:44 PM MST
Civil Twilight 6:14 AM MST 6:09 PM MST
Nautical Twilight 5:45 AM MST 6:39 PM MST
Astronomical Twilight 5:16 AM MST 7:07 PM MST
Moon 2:15 PM MST (10/23) 12:52 AM MST (10/23)
Length of Visible Light 11h 55m
Length of Day
11h 04m
Waxing Gibbous, 67% of the Moon is Illuminated
Oct 23
Waxing Gibbous
Oct 29
Full
Nov 6
Last Quarter
Nov 13
New
Nov 20
First Quarter

Hourly Weather History & Observations

Time (MST) Temp. Dew Point Humidity Pressure Visibility Wind Dir Wind Speed Gust Speed Precip Events Conditions
12:53 AM 68.0 °F 48.0 °F 49% 29.81 in 10.0 mi NE 3.5 mph - N/A   Clear
1:53 AM 66.0 °F 48.0 °F 52% 29.81 in 10.0 mi East 3.5 mph - N/A   Clear
2:53 AM 64.9 °F 48.0 °F 54% 29.81 in 10.0 mi Calm Calm - N/A   Clear
3:53 AM 62.1 °F 46.9 °F 58% 29.81 in 10.0 mi Calm Calm - N/A   Clear
4:53 AM 63.0 °F 48.0 °F 58% 29.82 in 10.0 mi ESE 3.5 mph - N/A   Clear
5:53 AM 64.9 °F 50.0 °F 58% 29.82 in 10.0 mi East 5.8 mph - N/A   Clear
6:53 AM 64.0 °F 48.9 °F 58% 29.83 in 10.0 mi Calm Calm - N/A   Clear
8:53 AM 71.1 °F 51.1 °F 49% 29.86 in 10.0 mi ESE 3.5 mph - N/A   Clear
9:53 AM 73.0 °F 55.0 °F 53% 29.86 in 10.0 mi Variable 3.5 mph - N/A   Clear
10:53 AM 75.0 °F 55.0 °F 50% 29.86 in 10.0 mi West 5.8 mph - N/A   Clear
11:53 AM 77.0 °F 55.0 °F 47% 29.84 in 10.0 mi Variable 4.6 mph - N/A   Clear
12:53 PM 78.1 °F 52.0 °F 40% 29.81 in 10.0 mi Variable 3.5 mph - N/A   Clear
1:53 PM 79.0 °F 50.0 °F 36% 29.79 in 10.0 mi Variable 5.8 mph - N/A   Clear
2:53 PM 80.1 °F 48.9 °F 34% 29.78 in 10.0 mi Calm Calm - N/A   Clear
3:53 PM 80.1 °F 46.9 °F 31% 29.77 in 10.0 mi South 3.5 mph - N/A   Clear
4:53 PM 79.0 °F 46.9 °F 32% 29.76 in 10.0 mi WSW 3.5 mph - N/A   Clear
5:53 PM 78.1 °F 48.0 °F 35% 29.75 in 10.0 mi SW 4.6 mph - N/A   Clear
6:53 PM 75.9 °F 46.9 °F 36% 29.77 in 10.0 mi West 3.5 mph - N/A   Clear
7:53 PM 73.9 °F 46.9 °F 38% 29.78 in 10.0 mi Calm Calm - N/A   Clear
8:53 PM 72.0 °F 46.9 °F 41% 29.78 in 10.0 mi NNE 3.5 mph - N/A   Clear
9:53 PM 71.1 °F 46.0 °F 41% 29.79 in 10.0 mi Calm Calm - N/A   Clear
10:53 PM 70.0 °F 45.0 °F 41% 29.79 in 10.0 mi NNE 4.6 mph - N/A   Clear
11:53 PM 66.9 °F 45.0 °F 45% 29.78 in 10.0 mi Calm Calm - N/A   Clear